Wind_Speed
29 31 33 37 38 40 40 42 41 39 35 33 31 30 30 28 29 30 27 27 27 27 26 25 24 25 25 24 23 22 23 22 22 20 20 20 21 20 21 21 20 18 18
29 31 35 38 41 41 41 42 42 40 35 31 30 28 25 25 26 27 27 29 28 29 30 29 28 28 29 30 28 28 26 25 26 25 22 21 21 21 23 23 23 23 23
32 34 38 41 42 41 40 42 41 39 32 30 27 24 20 19 19 22 24 26 28 29 30 31 32 32 32 33 34 33 32 30 29 29 28 26 25 25 25 25 26 27 28
33 36 37 42 41 40 40 42 41 34 30 29 24 20 17 16 16 15 16 20 24 27 29 30 32 34 34 34 33 32 34 34 33 32 32 31 31 30 30 31 30 30 31
38 39 41 41 39 38 41 39 36 30 27 24 19 15 14 13 11 14 13 11 12 17 20 23 26 28 28 30 31 33 34 35 35 36 35 35 34 34 34 35 35 35 34
39 40 39 41 38 39 37 34 30 25 23 18 17 12 14 14 15 13 10 10 9 11 12 12 13 14 18 21 24 27 28 30 33 34 35 36 37 37 37 37 37 39 40
42 41 40 39 36 37 34 30 25 20 20 20 19 18 17 18 16 14 15 15 15 14 16 15 14 16 18 17 18 20 22 25 27 30 33 35 35 35 36 35 36 37 38
41 42 40 38 34 34 31 26 22 21 20 21 22 23 22 22 20 19 18 18 19 20 21 21 21 20 19 21 21 20 20 22 23 25 25 25 25 24 25 27 28 27 27
43 44 42 33 32 30 28 25 24 23 22 22 23 24 24 24 23 23 24 25 25 26 25 25 26 27 28 28 28 28 27 27 26 27 29 30 29 31 32 33 33 30 31
46 44 33 30 31 29 27 26 25 26 25 24 25 26 26 28 29 29 30 31 32 33 34 34 34 34 35 35 34 34 35 36 35 35 35 36 36 37 37 37 37 39 39
48 38 32 31 30 29 29 27 27 27 28 28 29 30 31 33 34 35 36 37 38 39 40 41 42 42 43 43 43 43 43 43 43 44 45 45 46 45 44 45 46 45 46
38 36 34 32 30 29 31 31 32 32 33 33 35 35 36 38 40 40 42 43 44 46 47 47 48 49 50 51 50 50 51 52 52 53 53 53 53 52 53 53 52 53 53
37 36 37 35 33 33 34 35 36 38 38 39 41 41 42 44 45 46 48 49 50 52 53 54 55 55 57 58 59 59 60 60 60 60 61 62 63 61 61 61 61 60 61
40 39 40 39 38 39 39 40 41 42 43 45 46 47 49 51 52 54 55 56 57 60 60 61 61 62 64 64 66 66 67 68 68 67 67 69 69 69 68 68 67 66 64
42 42 42 42 43 43 42 45 47 48 50 51 52 53 55 57 60 61 63 64 66 68 69 70 71 71 72 73 73 74 75 73 74 75 76 76 77 77 77 77 76 72 69
48 47 48 50 49 51 51 51 51 53 55 58 60 62 63 65 67 68 69 71 72 74 75 76 78 79 81 82 83 83 83 85 84 85 85 87 87 87 86 84 81 80 77
51 52 54 55 56 56 57 57 60 61 63 64 65 67 69 71 73 75 76 79 80 81 82 84 87 89 89 87 88 90 90 90 89 90 92 92 92 93 91 88 86 86 85
57 59 60 61 62 64 65 66 67 69 71 70 71 72 74 76 77 78 81 82 83 83 86 88 89 90 93 94 92 93 93 93 94 94 94 96 94 96 97 97 93 90 91
64 65 67 68 68 71 72 73 74 76 77 78 80 79 80 81 80 81 81 83 86 89 90 90 87 86 87 88 88 88 89 91 93 95 95 96 96 95 95 96 98 97 94
70 71 72 74 76 77 76 77 78 80 81 82 83 84 85 85 85 86 87 88 89 87 83 83 85 87 88 88 88 89 88 87 88 89 91 92 93 96 96 96 96 93 93
70 72 74 77 78 79 79 79 80 79 79 79 80 82 83 85 87 89 88 88 86 85 85 86 86 81 79 79 78 80 82 84 86 88 88 90 91 92 92 92 94 93 93
73 74 76 77 77 78 78 79 80 81 81 81 83 83 85 86 87 87 87 86 85 85 84 80 79 80 81 82 82 82 82 85 88 88 91 89 84 83 83 83 85 84 86
74 75 75 75 77 78 79 81 80 81 83 85 88 89 87 87 88 86 86 87 84 79 78 78 80 80 80 83 83 81 81 78 73 76 77 73 73 71 68 71 71 77 84
78 78 78 78 80 80 79 81 84 86 88 87 87 88 89 90 87 84 80 76 76 77 77 77 78 78 78 76 70 61 61 60 62 63 67 66 65 58 59 57 61 67 72
78 79 79 79 78 82 84 86 86 84 86 88 88 81 73 70 69 71 73 75 74 73 72 71 67 58 49 47 52 57 55 58 59 45 48 58 52 51 48 45 45 52 63
78 78 80 81 83 85 83 81 82 81 75 68 66 68 70 71 71 70 68 63 56 50 45 42 40 39 44 47 45 45 46 51 56 43 40 41 37 37 40 50 40 45 58
Wind_Direction
291 294 296 303 308 308 307 306 309 307 299 291 286 280 281 273 272 276 274 265 262 263 263 261 264 268 268 265 267 272 279 282 284 280 273 272 274 273 271 272 273 273 273
288 296 300 302 306 306 305 305 306 305 298 292 287 283 279 275 273 270 271 267 263 260 260 262 263 268 269 266 265 263 263 269 275 279 280 275 271 272 271 271 267 266 267
286 293 301 305 304 304 303 302 304 303 295 291 288 285 282 281 282 281 276 270 266 264 261 262 267 270 274 277 270 268 269 268 268 273 275 277 276 274 271 270 270 269 269
287 292 300 306 303 301 300 301 302 298 293 290 288 282 279 278 286 293 290 280 273 269 269 268 267 272 275 277 278 274 272 271 270 271 273 275 277 277 277 275 273 273 270
287 292 296 305 301 300 299 302 298 296 291 283 278 277 274 277 279 296 300 301 293 282 277 277 276 274 274 274 274 274 278 275 276 272 272 275 277 277 279 278 276 275 276
285 293 294 302 296 297 297 299 295 290 287 280 272 272 277 276 284 295 294 304 301 308 306 311 305 299 290 285 283 278 278 276 275 274 273 273 277 279 280 279 278 277 277
288 292 295 298 292 293 294 293 287 281 285 279 273 268 268 274 282 285 285 299 300 306 306 307 300 300 302 305 302 291 289 288 284 281 280 280 281 281 281 278 281 281 281
288 292 295 295 289 289 289 285 276 280 281 279 276 275 277 283 289 290 289 297 299 300 298 300 301 304 298 295 299 295 296 296 295 292 289 287 284 285 284 284 282 282 285
285 289 296 285 285 285 282 278 276 280 279 278 279 282 286 290 290 292 292 294 295 298 297 296 297 298 298 295 295 296 295 294 295 292 289 286 284 283 283 286 285 281 284
285 292 282 282 283 279 278 275 277 281 279 280 284 284 286 289 290 291 291 293 293 296 296 296 296 295 295 294 293 292 291 289 291 287 286 284 285 286 284 285 286 280 283
289 283 275 276 279 279 276 275 275 280 283 281 285 288 289 290 292 293 293 293 293 294 295 294 295 294 294 293 292 291 289 288 287 287 287 285 284 283 282 285 286 287 287
278 279 266 273 275 281 279 280 280 281 282 285 286 286 288 289 291 291 290 292 292 291 290 290 290 290 290 289 288 288 288 287 286 286 285 285 284 282 281 282 283 283 284
265 272 263 268 272 279 280 282 283 284 285 286 284 284 283 283 284 284 285 284 285 285 285 285 285 286 285 285 285 286 286 286 284 284 283 284 283 281 280 280 281 281 281
262 264 263 266 267 278 277 280 282 281 283 284 283 284 285 285 284 283 282 282 282 284 282 281 281 280 280 279 280 280 281 282 282 282 279 280 282 281 281 279 277 277 277
259 262 263 265 267 270 272 277 281 281 283 284 283 283 283 283 284 284 285 284 285 285 285 284 284 283 283 282 282 281 281 279 278 277 279 280 280 280 279 279 278 275 274
259 262 264 267 269 273 276 277 278 279 281 283 285 285 285 286 286 286 285 285 285 285 284 284 283 281 281 282 282 281 280 279 278 277 276 277 277 277 277 276 275 273 271
259 263 266 268 271 272 273 275 277 278 279 280 280 281 281 280 280 280 280 281 282 282 282 282 282 282 281 280 280 280 280 279 279 277 277 277 276 275 275 274 273 272 271
262 265 268 270 272 273 274 275 276 277 279 279 280 282 281 281 281 281 281 282 284 285 285 284 283 282 282 281 279 279 278 277 276 275 274 274 273 271 271 272 271 269 270
264 265 267 270 272 274 276 278 279 280 280 280 281 282 282 283 283 282 282 282 283 285 286 286 285 284 283 282 282 279 277 275 274 274 273 272 272 271 269 268 267 267 267
266 268 270 272 274 275 277 279 280 280 281 281 281 282 283 282 283 284 284 286 288 290 289 289 289 288 286 284 283 283 281 279 277 276 274 272 271 269 266 266 265 265 264
269 270 271 273 275 278 280 281 283 284 284 285 285 285 285 285 285 286 288 291 291 289 290 290 289 287 287 286 287 285 285 283 283 280 278 275 273 270 267 266 263 262 260
271 272 274 275 277 281 283 285 285 286 287 287 287 286 286 287 288 288 289 290 289 289 288 286 286 288 288 288 285 286 285 285 284 284 283 280 278 274 270 266 262 258 256
276 277 278 280 282 284 285 286 286 287 287 287 287 287 288 288 288 289 288 288 287 286 285 285 284 285 287 286 287 287 286 285 286 286 286 286 279 274 270 265 263 257 253
277 280 283 284 284 286 286 287 287 286 287 288 288 289 289 289 288 287 286 285 285 285 285 286 285 286 287 287 290 291 291 290 289 293 294 281 276 275 270 263 262 260 255
280 282 284 285 285 285 286 285 287 287 287 289 289 289 288 287 286 287 287 286 286 286 285 284 285 289 293 297 300 298 296 295 298 301 283 280 279 273 264 254 248 257 258
281 282 283 284 285 285 286 284 286 288 288 287 288 288 288 289 290 290 291 291 291 291 292 294 300 304 303 302 302 306 307 306 307 317 301 289 279 269 256 238 224 229 244
Height
10896 10896 10896 10894 10893 10891 10889 10886 10885 10883 10882 10881 10879 10879 10879 10878 10878 10877 10877 10877 10878 10879 10879 10879 10879 10880 10880 10880 10880 10881 10881 10881 10881 10881 10881 10882 10882 10882 10882 10882 10881 10881 10881
10893 10893 10892 10890 10889 10887 10885 10882 10881 10879 10876 10875 10875 10874 10873 10873 10873 10872 10872 10872 10872 10873 10874 10875 10875 10875 10875 10875 10876 10876 10877 10877 10877 10877 10876 10877 10877 10878 10878 10878 10878 10877 10877
10889 10889 10887 10886 10884 10883 10881 10878 10876 10874 10872 10871 10870 10869 10869 10868 10868 10868 10868 10868 10868 10868 10869 10870 10870 10870 10870 10870 10871 10871 10872 10873 10873 10872 10872 10872 10873 10873 10873 10873 10873 10873 10872
10886 10885 10884 10882 10880 10878 10876 10873 10871 10869 10868 10867 10866 10865 10865 10864 10865 10865 10864 10864 10864 10864 10864 10865 10866 10866 10866 10865 10865 10866 10866 10867 10867 10867 10867 10867 10867 10868 10868 10867 10867 10867 10867
10882 10881 10881 10879 10876 10874 10871 10869 10866 10865 10864 10863 10863 10862 10863 10863 10863 10863 10862 10862 10860 10861 10861 10861 10860 10860 10860 10859 10860 10860 10860 10861 10861 10861 10861 10861 10861 10861 10861 10861 10860 10860 10860
10877 10877 10876 10875 10872 10869 10867 10865 10863 10862 10860 10860 10860 10861 10861 10860 10860 10860 10859 10859 10859 10859 10859 10858 10857 10856 10856 10855 10854 10854 10854 10854 10854 10854 10854 10854 10854 10854 10853 10853 10853 10853 10852
10871 10872 10872 10870 10868 10865 10862 10860 10860 10859 10858 10857 10857 10857 10857 10856 10856 10856 10856 10856 10855 10854 10854 10854 10853 10853 10852 10851 10851 10850 10849 10849 10848 10848 10847 10847 10847 10847 10846 10845 10845 10844 10844
10866 10866 10866 10865 10864 10861 10859 10857 10857 10856 10856 10855 10855 10854 10853 10852 10852 10852 10852 10851 10851 10850 10849 10848 10848 10848 10847 10847 10847 10846 10845 10845 10844 10843 10842 10842 10841 10841 10840 10839 10838 10837 10836
10860 10861 10860 10859 10858 10857 10855 10854 10853 10853 10853 10853 10852 10851 10850 10849 10849 10848 10848 10847 10847 10846 10845 10845 10844 10843 10842 10842 10841 10841 10840 10839 10839 10838 10837 10836 10836 10835 10834 10833 10832 10831 10830
10854 10854 10854 10854 10853 10852 10851 10850 10850 10850 10850 10849 10849 10848 10847 10846 10845 10844 10843 10842 10842 10840 10840 10839 10838 10837 10837 10836 10836 10835 10834 10833 10833 10832 10831 10830 10829 10828 10827 10826 10825 10824 10823
10847 10847 10848 10849 10848 10847 10847 10846 10845 10844 10844 10844 10844 10843 10842 10841 10840 10838 10837 10836 10835 10834 10833 10832 10831 10830 10828 10827 10827 10827 10826 10825 10825 10823 10822 10821 10820 10819 10819 10818 10816 10815 10814
10840 10841 10841 10842 10842 10842 10841 10841 10840 10839 10839 10839 10838 10837 10836 10835 10834 10832 10831 10829 10828 10826 10825 10824 10824 10822 10821 10819 10818 10818 10816 10815 10814 10814 10813 10811 10811 10810 10809 10807 10806 10805 10804
10833 10834 10834 10835 10835 10836 10835 10835 10834 10833 10833 10832 10832 10831 10830 10828 10827 10825 10824 10822 10819 10818 10816 10815 10814 10813 10811 10809 10808 10807 10806 10805 10804 10803 10801 10799 10798 10799 10797 10796 10794 10793 10792
10826 10827 10827 10828 10828 10828 10828 10827 10827 10826 10825 10824 10823 10822 10821 10819 10817 10816 10814 10813 10810 10807 10807 10805 10804 10803 10801 10799 10796 10796 10794 10791 10790 10790 10788 10786 10785 10784 10783 10783 10782 10780 10779
10819 10819 10820 10821 10821 10821 10820 10820 10819 10817 10816 10814 10813 10812 10811 10809 10806 10805 10803 10800 10797 10794 10793 10792 10788 10788 10786 10784 10783 10780 10778 10779 10776 10772 10771 10772 10769 10767 10769 10766 10765 10765 10765
10811 10811 10812 10812 10812 10812 10812 10811 10810 10808 10806 10804 10802 10800 10799 10797 10793 10790 10788 10785 10782 10779 10777 10774 10772 10769 10767 10764 10763 10761 10760 10757 10757 10755 10755 10752 10749 10747 10746 10748 10747 10747 10747
10802 10803 10803 10802 10802 10801 10801 10801 10799 10798 10796 10794 10792 10790 10788 10785 10782 10779 10776 10771 10767 10765 10763 10759 10754 10749 10747 10747 10744 10739 10738 10736 10736 10734 10730 10729 10728 10724 10721 10723 10727 10726 10727
10793 10792 10792 10791 10791 10790 10789 10788 10786 10786 10784 10781 10779 10777 10772 10769 10767 10764 10760 10756 10750 10746 10741 10737 10734 10730 10725 10720 10722 10719 10716 10713 10708 10706 10706 10703 10702 10702 10701 10698 10700 10704 10703
10782 10782 10780 10779 10778 10777 10775 10775 10773 10771 10769 10766 10763 10760 10755 10752 10749 10747 10743 10739 10734 10728 10722 10716 10710 10706 10701 10696 10691 10691 10689 10686 10682 10679 10678 10675 10673 10674 10675 10675 10674 10677 10682
10768 10768 10768 10766 10764 10763 10762 10760 10757 10754 10752 10748 10745 10742 10738 10733 10729 10726 10722 10718 10713 10707 10700 10696 10690 10683 10678 10673 10669 10662 10659 10658 10656 10652 10648 10645 10645 10645 10645 10649 10653 10655 10656
10755 10754 10753 10751 10750 10748 10746 10743 10740 10737 10734 10730 10727 10723 10719 10714 10709 10704 10700 10695 10690 10685 10679 10675 10669 10662 10655 10650 10649 10643 10637 10630 10627 10622 10620 10618 10617 10615 10616 10620 10625 10633 10632
10741 10740 10739 10737 10736 10734 10730 10726 10723 10719 10716 10712 10708 10704 10699 10694 10689 10684 10680 10674 10670 10665 10659 10654 10649 10643 10639 10632 10628 10624 10621 10611 10603 10598 10591 10587 10587 10585 10587 10590 10594 10600 10605
10727 10725 10724 10723 10721 10717 10714 10709 10705 10701 10697 10692 10687 10683 10679 10673 10668 10664 10659 10655 10650 10646 10641 10636 10631 10627 10621 10612 10609 10604 10599 10592 10586 10570 10565 10561 10558 10556 10559 10560 10565 10570 10573
10712 10712 10710 10707 10704 10699 10694 10690 10686 10681 10677 10672 10667 10663 10657 10651 10647 10644 10640 10635 10631 10628 10623 10617 10612 10608 10603 10596 10590 10582 10576 10572 10566 10566 10539 10536 10533 10537 10536 10541 10544 10544 10551
10698 10696 10693 10689 10685 10682 10677 10673 10668 10663 10658 10653 10648 10643 10637 10632 10628 10625 10622 10618 10613 10609 10604 10600 10596 10592 10587 10581 10574 10566 10560 10552 10545 10544 10532 10515 10521 10517 10520 10524 10523 10528 10529
10681 10678 10676 10673 10668 10663 10659 10654 10649 10646 10641 10635 10631 10626 10621 10617 10612 10607 10603 10599 10594 10591 10589 10586 10583 10579 10574 10569 10562 10556 10548 10539 10528 10521 10513 10505 10504 10505 10506 10503 10506 10506 10511